Preview of NWS' New Version of Forecast
This preview is not operational and should not be used for support decisions.

Regional Weather Roundup (RWR)

Issued by National Weather Service (NWS)

                            
000
ASUS45 KCYS 200110
RWRWY 

WYOMING REGIONAL WEATHER ROUNDUP
NATIONAL WEATHER SERVICE CHEYENNE WY
700 PM MDT FRI APR 19 2019

NOTE:  "FAIR" INDICATES FEW OR NO CLOUDS BELOW 12,000 FEET
WITH NO SIGNIFICANT WEATHER AND/OR OBSTRUCTIONS TO VISIBILITY.

WYZ001-200200-
...YELLOWSTONE NATIONAL PARK...
  
CITY           SKY/WX    TMP DP  RH WIND       PRES   REMARKS
LK YELLOWSTONE   N/A     52  29  41 VRB6      30.11F                  
W YELLOWSTONE  NOT AVBL                                               

$$
WYZ002>013-054>058-071-098>099-200200-
...NORTHERN WYOMING...
  
CITY           SKY/WX    TMP DP  RH WIND       PRES   REMARKS
JACKSON        SUNNY     56  30  37 SW10      30.06F                  
CODY           SUNNY     70  26  19 SW14G20   29.91S                  
GREYBULL       PTCLDY    77  28  16 SE13      29.81F                  
WORLAND        CLEAR     74  29  19 E12       29.83F                  
SHERIDAN       CLEAR     73  37  27 S5        29.83F                  
BUFFALO        CLEAR     71  34  25 SE7       29.90F                  
GILLETTE       MOCLDY    70  37  29 SW9       29.88F                  
HULETT         FAIR      72  34  25 W7        29.88F                  
NEWCASTLE      FAIR      70  30  23 W6        29.90F                  

$$
WYZ014>020-022>026-101>103-200200-
...CENTRAL WYOMING...
  
CITY           SKY/WX    TMP DP  RH WIND       PRES   REMARKS
BIG PINEY      SUNNY     61  25  25 W13       30.08F                  
PINEDALE       SUNNY     59  28  31 NW9       30.08F                  
DUBOIS         FAIR      59  21  23 W10G17    30.04F                  
LANDER         FAIR      69  30  23 SW17      29.92F                  
RIVERTON       SUNNY     71  27  19 W15       29.93F                  
CASPER         CLEAR     68  33  27 NW8       29.94F                  
DOUGLAS        CLEAR     71  34  25 W3        29.94F                  

$$
WYZ021-027>030-104>119-200200-
...SOUTHERN WYOMING...
  
CITY           SKY/WX    TMP DP  RH WIND       PRES   REMARKS
EVANSTON       SUNNY     60  26  27 W10       30.12S                  
KEMMERER       SUNNY     61  23  23 SW18      30.11F                  
FORT BRIDGER   NOT AVBL                                               
ROCK SPRINGS   SUNNY     64  25  22 SW8       30.07F                  
DIXON          FAIR      67  19  16 SW9       30.11F                  
RAWLINS        CLEAR     66  21  18 W15       30.06F                  
SARATOGA       FAIR      63  21  20 SW13G24   30.10F                  
LARAMIE        CLEAR     62  21  20 W10       30.08F                  
CHEYENNE       CLEAR     68  26  20 N9        30.04S                  
TORRINGTON     CLEAR     74  33  22 N3        29.91F                  
PINE BLUFFS    FAIR      70  30  23 N3        29.99F                  

$$